TimeEDT,TemperatureF,Dew PointF,Humidity,Sea Level PressureIn,VisibilityMPH,Wind Direction,Wind SpeedMPH,Gust SpeedMPH,PrecipitationIn,Events,Conditions,WindDirDegrees,DateUTC
12:53 AM,72.0,68.0,87,29.96,9.0,Calm,Calm,-,0.01,,Mostly Cloudy,0,2013-09-08 04:53:00
1:53 AM,71.1,68.0,90,29.97,9.0,Calm,Calm,-,0.00,,Partly Cloudy,0,2013-09-08 05:53:00
2:53 AM,71.1,69.1,93,29.95,6.0,Calm,Calm,-,0.01,,Partly Cloudy,0,2013-09-08 06:53:00
3:53 AM,69.1,68.0,96,29.96,2.5,Calm,Calm,-,N/A,,Scattered Clouds,0,2013-09-08 07:53:00
4:17 AM,69.8,68.0,94,29.98,1.5,Calm,Calm,-,N/A,,Clear,0,2013-09-08 08:17:00
4:44 AM,68.0,66.2,94,29.98,2.5,Calm,Calm,-,N/A,,Clear,0,2013-09-08 08:44:00
4:53 AM,68.0,66.0,93,29.96,2.0,Calm,Calm,-,N/A,,Clear,0,2013-09-08 08:53:00
5:12 AM,68.0,66.2,94,29.98,1.5,Calm,Calm,-,N/A,,Partly Cloudy,0,2013-09-08 09:12:00
5:39 AM,68.0,66.2,94,29.97,3.0,Calm,Calm,-,N/A,,Scattered Clouds,0,2013-09-08 09:39:00
5:53 AM,68.0,66.9,96,29.95,1.8,Calm,Calm,-,N/A,,Clear,0,2013-09-08 09:53:00
6:36 AM,66.2,64.4,94,29.97,4.0,Calm,Calm,-,N/A,,Clear,0,2013-09-08 10:36:00
6:53 AM,64.9,64.9,100,29.96,4.0,Calm,Calm,-,N/A,,Partly Cloudy,0,2013-09-08 10:53:00
7:53 AM,66.9,66.0,97,29.97,4.0,Calm,Calm,-,N/A,,Clear,0,2013-09-08 11:53:00
8:53 AM,70.0,69.1,97,29.98,6.0,Calm,Calm,-,N/A,,Overcast,0,2013-09-08 12:53:00
9:53 AM,73.9,69.1,85,29.99,7.0,Calm,Calm,-,N/A,,Partly Cloudy,0,2013-09-08 13:53:00
10:53 AM,79.0,70.0,74,29.99,10.0,Variable,3.5,-,N/A,,Mostly Cloudy,0,2013-09-08 14:53:00
11:53 AM,78.1,68.0,71,29.99,10.0,West,3.5,-,N/A,,Mostly Cloudy,260,2013-09-08 15:53:00
12:53 PM,79.0,69.1,72,29.99,10.0,Calm,Calm,-,N/A,,Scattered Clouds,0,2013-09-08 16:53:00
1:53 PM,81.0,70.0,69,29.98,10.0,Calm,Calm,-,N/A,,Clear,0,2013-09-08 17:53:00
2:53 PM,81.0,70.0,69,29.97,10.0,Calm,Calm,-,N/A,,Clear,0,2013-09-08 18:53:00
3:53 PM,82.9,68.0,60,29.95,10.0,South,3.5,-,N/A,,Clear,190,2013-09-08 19:53:00
4:53 PM,84.0,68.0,58,29.95,10.0,Variable,4.6,-,N/A,,Clear,0,2013-09-08 20:53:00
5:53 PM,84.0,69.1,61,29.94,10.0,WSW,3.5,-,N/A,,Clear,250,2013-09-08 21:53:00
6:53 PM,81.0,64.0,56,29.94,10.0,SSW,4.6,-,N/A,,Clear,200,2013-09-08 22:53:00
7:53 PM,75.9,68.0,76,29.94,10.0,Calm,Calm,-,N/A,,Clear,0,2013-09-08 23:53:00
8:53 PM,71.1,68.0,90,29.96,10.0,Calm,Calm,-,N/A,,Clear,0,2013-09-09 00:53:00
9:53 PM,69.1,66.9,93,29.97,7.0,Calm,Calm,-,N/A,,Clear,0,2013-09-09 01:53:00
10:53 PM,68.0,66.9,96,29.98,5.0,Calm,Calm,-,N/A,,Clear,0,2013-09-09 02:53:00
11:29 PM,66.2,64.4,94,30.00,2.5,Calm,Calm,-,N/A,,Clear,0,2013-09-09 03:29:00
11:37 PM,68.0,66.2,94,30.00,5.0,Calm,Calm,-,N/A,,Clear,0,2013-09-09 03:37:00
11:53 PM,66.9,66.0,97,29.98,5.0,Calm,Calm,-,N/A,,Clear,0,2013-09-09 03:53:00